[ hide orbit diagram ]
For accurate long-term ephemerides, please instead use our Horizons system.This orbit viewer was implemented using two-body methods, and hence should not be used for determining accurate long-term trajectories (over several years or decades) or planetary encounter circumstances.
Orbital Elements at Epoch 2459000.5 (2020-May-31.0) TDB
Reference: JPL 26 (heliocentric ecliptic J2000)
Element | Value | Uncertainty (1-sigma) | Units |
e | .1050286996678483 | 4.6983e-08 | |
a | 3.023107565460249 | 2.8155e-08 | au |
q | 2.705594508903925 | 1.5449e-07 | au |
i | 9.989162546320804 | 5.2798e-06 | deg |
node | 169.421377917545 | 2.3357e-05 | deg |
peri | 320.982815708586 | 3.4098e-05 | deg |
M | 302.3872569729343 | 2.3732e-05 | deg |
tp | 2459307.752113815369 (2021-Apr-03.25211382) | 0.00012764 | TDB |
period | 1919.900965686867 5.26 | 2.6821e-05 7.343e-08 | d yr |
n | .1875096718185179 | 2.6195e-09 | deg/d |
Q | 3.340620622016574 | 3.1112e-08 | au |
|
| | Orbit Determination Parameters
Additional Information
|
[ show covariance matrix ]
Physical Parameter Table
Parameter |
Symbol |
Value |
Units |
Sigma |
Reference |
Notes |
absolute magnitude |
H |
15.1 |
|
n/a |
MPO418032 |
|
diameter |
diameter |
6.867 |
km |
0.163 |
urn:nasa:pds:neowise_diameters_albedos::2.0[mainbelt] (http://adsabs.harvard.edu/abs/2011ApJ...741...68M) |
|
geometric albedo |
albedo |
0.041 |
|
0.007 |
urn:nasa:pds:neowise_diameters_albedos::2.0[mainbelt] (http://adsabs.harvard.edu/abs/2011ApJ...741...68M) |
|
|
192144 (2006 FR9) Discovered 2006-Mar-24 by Lowe, A. at Mayhill |
Reference: 20080917/Numbers.arc | Last Updated: 2008-09-19 |
|
[ hide close-approach data ]
Close-Approach Data ...sorted by Date/Time (TDB)
|
Date/Time (TDB) |
Time Uncertainty (days_HH:MM) |
Body |
Nominal Distance (au) |
Minimum Distance (au) |
Maximum Distance (au) |
V-relative (km/s) |
V-infinity (km/s) |
JD (TDB) |
Time Uncertainty (minutes) |
Semi-major axis (km) |
Semi-minor axis (km) |
range-LOV angle (deg) |
N-sigma |
BP |
Orbit Ref. |
Reference |
Modified |
1903-Apr-20 05:24 |
00:05 |
Jupiter |
1.73489308775002 |
1.73489248216843 |
1.73489369334364 |
3.1611026003011 |
3.00268457362691 |
2416224.724941904 |
4.98485639756124 |
402.10228327523 |
21.7641114945158 |
-85.37039791421 |
2273864.42431444 |
T |
26 |
CATAB v2.0f-lin.ifort 2020-Nov-12 06:43:43 |
2020-Nov-12 06:43 |
1950-Aug-03 12:07 |
00:03 |
Jupiter |
1.74029233203458 |
1.7402916522705 |
1.74029301180331 |
3.07733173713882 |
2.91488337056507 |
2433497.004591174 |
2.87381248098074 |
220.860048700701 |
23.2997575926429 |
-82.1093635701052 |
2261240.96032278 |
T |
26 |
CATAB v2.0f-lin.ifort 2020-Nov-12 06:43:43 |
2020-Nov-12 06:43 |
1997-Nov-12 19:47 |
< 00:01 |
Jupiter |
1.76102060548899 |
1.76102008068302 |
1.76102113029496 |
3.00606852339027 |
2.84156298824298 |
2450765.324261078 |
0.839199104697632 |
79.7945143458746 |
22.6915455248703 |
-86.3064664015121 |
2340705.31231622 |
T |
26 |
CATAB v2.0f-lin.ifort 2020-Nov-12 06:43:43 |
2020-Nov-12 06:43 |
2045-Feb-17 02:16 |
00:01 |
Jupiter |
1.78710637402377 |
1.78710583720091 |
1.78710691084704 |
2.93317103480831 |
2.76686936375312 |
2468028.594546494 |
1.29716080547485 |
103.626770558334 |
23.8467342642682 |
-81.4793253105354 |
2262448.16663652 |
T |
26 |
CATAB v2.0f-lin.ifort 2020-Nov-12 06:43:43 |
2020-Nov-12 06:43 |
2092-May-19 01:53 |
00:03 |
Jupiter |
1.81619119343566 |
1.81618996268764 |
1.81619242418874 |
2.85697435585542 |
2.68878345942007 |
2485286.578158230 |
3.39605483595842 |
186.127032297056 |
31.7909578985807 |
-68.8978647520692 |
2332555.81430396 |
T |
26 |
CATAB v2.0f-lin.ifort 2020-Nov-12 06:43:43 |
2020-Nov-12 06:43 |
2130-May-15 12:53 |
00:05 |
Jupiter |
1.96653647831764 |
1.96653397661464 |
1.96653898003338 |
3.78707394717669 |
3.67157911897289 |
2499161.036889481 |
4.81390860680975 |
287.146292842442 |
20.7743843374472 |
66.2758018456076 |
3006624.69823944 |
T |
26 |
CATAB v2.0f-lin.ifort 2020-Nov-12 06:43:43 |
2020-Nov-12 06:43 |
2139-Aug-13 16:26 |
00:05 |
Jupiter |
1.86056029582421 |
1.86055801470501 |
1.86056257695028 |
2.79910240513508 |
2.63143908353337 |
2502538.184757337 |
5.4769323199457 |
225.11310068971 |
41.3019955084203 |
-56.2492053488296 |
2580677.02412059 |
T |
26 |
CATAB v2.0f-lin.ifort 2020-Nov-12 06:43:43 |
2020-Nov-12 06:43 |
2177-Aug-09 07:36 |
00:07 |
Jupiter |
1.90708726265805 |
1.90708402171443 |
1.9070905036345 |
3.66269247568197 |
3.53935403212735 |
2516413.816877300 |
6.66513704923218 |
437.680500499097 |
20.8451391225773 |
69.8227528683283 |
2832185.75356175 |
T |
26 |
CATAB v2.0f-lin.ifort 2020-Nov-12 06:43:43 |
2020-Nov-12 06:43 |
2186-Nov-02 23:43 |
00:07 |
Jupiter |
1.91741951702724 |
1.91741612067171 |
1.9174229133867 |
2.7819873011926 |
2.61838705973124 |
2519786.488344116 |
7.38859433772359 |
223.861284407172 |
53.2268383106152 |
-37.7206731855412 |
3043425.92216073 |
T |
26 |
CATAB v2.0f-lin.ifort 2020-Nov-12 06:43:43 |
2020-Nov-12 06:43 |
|
|